www.pogodaiklimat.ru

Погода и климат >> Архив погоды >> Финляндия >> Аэропорт Рануа


ПОГОДА в Аэропорту Рануа

  • Прогноз погоды в Аэропорту Рануа
  • Монитор погоды в Аэропорту Рануа

АРХИВ ПОГОДЫ в Аэропорту Рануа

Время (UTC), дата Ветер
(напр.,м/с)
 
Видим.   Явления Облачность Т
(С)
Тd
(С)
f
(%)
Тe
(С)
Тes
(С)
Комфортность P
(гПа)
Po
(гПа)
Тmin
(С)
Tmax
(С)
R
(мм)
R24
(мм)
S
(см)
03 9.06 Ю 3 17 км ясно +17.8 +16.2 90 +18 +19 1012.5 993.4
06 9.06 Ю 2 30 км 9/9
[]
+20.2 +16.3 78 +24 +24 комфорт 1011.0 992.1 +12.8 +22.1
09 9.06 ЮВ 1 35 км в посл. час дождь 9/9
[]
+19.2 +17.5 90 +22 +23 комфорт 1009.9 990.9
12 9.06 Ю 6 н/о 9/9 200 м
[]
+17.3 +16.5 95 +16 +17 1008.7 989.6
15 9.06 ЮЗ 6 40 км в посл. час морось 9/5 1000 м
[]
+14.3 +12.2 87 +12 +13 1010.0 990.7
18 9.06 ЮЗ 8 50 км ясно +14.0 +8.2 68 +12 +12 1009.6 990.3 +13.0 +22.7 10
21 9.06 ЮЗ 8 50 км ясно +12.6 +7.7 72 +10 +10 1009.1 989.6
00 10.06 Ю 7 50 км ясно +11.5 +8.4 81 +8 +8 1008.1 988.6
03 10.06 Ю 7 50 км 9/9 300 м
[]
+12.2 +9.4 83 +9 +9 1006.5 987.1
06 10.06 Ю 8 45 км 9/5 300 м
[]
+13.3 +9.9 80 +11 +11 1005.9 986.5 +11.1 +14.6
09 10.06 Ю 9 40 км 5/5 300 м
[]
+15.4 +10.2 71 +13 +14 1006.1 987.0
12 10.06 ЮЗ 7 50 км в посл. час дождь 9/9 600 м
[]
+14.1 +10.2 77 +12 +12 1007.3 988.0
15 10.06 ЮЗ 5 50 км 9/9 300 м
[]
+13.4 +10.0 80 +11 +12 1007.9 988.6
18 10.06 СЗ 3 50 км слаб. морось 10/10 300 м
[]
+8.3 +7.3 93 +6 +6 1011.3 991.5 +8.3 +17.2 0.7
21 10.06 СЗ 4 50 км 9/4 600 м
[]
+5.2 +2.1 80 +1 +1 1014.8 994.8
00 11.06 СЗ 4 50 км 9/9 300 м
[]
+3.3 +0.9 84 -1 -1 1018.1 997.9
03 11.06 С 4 30 км 9/9 300 м
[]
+3.5 +0.2 79 -1 -1 1021.0 1000.7
06 11.06 50 км 9/9 600 м
[]
+4.5 -1.4 65 1023.5 1003.3 +2.5 +8.3
09 11.06 СЗ 4 45 км 9/9 1000 м
[]
+7.6 -0.2 58 +5 +5 1025.9 1005.8
12 11.06 С 4 45 км 9/9 1000 м
[]
+7.0 +0.4 63 +4 +4 1026.8 1006.7
15 11.06 С 4 50 км 9/9 1000 м
[]
+7.2 -0.2 59 +4 +4 1028.0 1007.9
18 11.06 С 2 50 км 10/10 1500 м
[]
+6.4 -1.1 59 +5 +5 1029.2 1008.9 +4.3 +9.9
21 11.06 СЗ 1 50 км ясно +1.5 -0.3 88 -0 -0 1030.1 1009.5
00 12.06 СЗ 1 50 км ясно -1.1 -1.4 98 -3 -3 1031.4 1010.6
03 12.06 СЗ 1 50 км 9/9 1500 м
[]
+3.1 +1.6 90 +1 +2 1031.5 1010.9
06 12.06 СЗ 2 45 км 9/9 1500 м
[]
+9.3 -0.1 52 +8 +9 1031.1 1011.1 -1.3 +9.5
09 12.06 С 3 45 км 9/9 1500 м
[]
+10.1 -1.8 43 +8 +9 1031.4 1011.4
12 12.06 С 2 50 км 9/9 1500 м
[]
+12.1 -1.2 40 +12 +13 1030.3 1010.5
15 12.06 СВ 1 50 км 5/5 1500 м
[]
+11.7 +0.4 46 +12 +15 1029.4 1009.5
18 12.06 Ю 1 50 км ясно +11.9 -0.3 43 +12 +13 1028.8 1009.0 +8.6 +13.8
21 12.06 Ю 1 50 км ясно +5.5 +3.3 86 +4 +4 1029.4 1009.1
00 13.06 В 1 30 км ясно +1.3 +1.2 99 -1 -1 1029.6 1009.0
03 13.06 ЮВ 1 45 км 8/8
[]
+6.4 +2.7 77 +5 +6 1028.9 1008.7
06 13.06 Ю 1 40 км 8/0
[]
+12.6 +1.2 46 +13 +17 1027.6 1007.8 +1.3 +12.8
09 13.06 ЮВ 2 50 км 4/4
[]
+15.4 +0.5 36 +15 +22 1026.4 1006.8
12 13.06 ЮЗ 3 35 км ясно +17.5 +2.3 36 +18 +27 1025.0 1005.6
15 13.06 ЮВ 2 40 км 9/6
[]
+17.2 +0.7 33 +18 +19 1023.3 1003.9
18 13.06 С 1 50 км 9/9
[]
+14.7 +4.1 49 +15 +15 1022.5 1002.9 +12.6 +18.2
21 13.06 СВ 1 50 км 9/9
[]
+12.6 +5.1 60 +13 +13 1022.1 1002.5
00 14.06 СВ 2 50 км ясно +5.5 +4.8 95 +3 +3 1022.1 1001.9
03 14.06 С 1 45 км ясно +12.0 +6.5 69 +12 +14 1020.8 1001.2
06 14.06 СВ 2 35 км ясно +16.9 +3.8 42 +17 +23 1019.7 1000.3 +5.3 +17.2
09 14.06 СВ 2 45 км ясно +19.0 +0.3 28 +20 +31 1018.4 999.2
12 14.06 СЗ 3 35 км ясно +21.6 -0.5 23 +21 +30 комфорт 1016.7 997.7
15 14.06 З 3 40 км ясно +22.1 -0.9 22 +21 +26 комфорт 1014.7 995.8
18 14.06 СЗ 2 50 км ясно +19.7 +2.2 31 +21 +21 комфорт 1013.6 994.6 +16.6 +22.3
21 14.06 З 1 50 км ясно +13.8 +6.3 61 +14 +14 1013.9 994.4
00 15.06 С 2 35 км ясно +7.0 +6.4 96 +5 +5 1014.0 994.1
03 15.06 С 3 25 км ясно +12.5 +5.8 64 +11 +12 1013.9 994.4
06 15.06 СВ 3 30 км ясно +15.6 +5.5 51 +15 +20 1014.5 995.2 +6.9 +20.1
09 15.06 С 3 40 км ясно +18.5 +3.6 37 +19 +28 1014.9 995.8
12 15.06 С 2 30 км ясно +21.1 +3.3 31 +21 +32 комфорт 1014.3 995.4
15 15.06 СЗ 2 35 км ясно +21.3 +1.2 26 +21 +26 комфорт 1013.5 994.6
18 15.06 СЗ 3 40 км ясно +19.2 +2.1 32 +20 +20 1013.0 994.0 +15.5 +21.9
21 15.06 ЮЗ 3 50 км ясно +13.5 +5.1 57 +13 +13 1013.0 993.6

 

Местоположение метеостанции Аэропорт Рануа (Финляндия): широта 65.97 долгота 26.37 высота над уровнем моря 161 м.

В архиве по умолчанию представлена погода в Аэропорту Рануа за последнюю неделю. Архивные данные за месяц целиком и за предыдущие месяцы, начиная с января 2011 года, Вы можете получить, выбрав интересующий диапазон дат из раскрывающегося списка и нажав кнопку "Ввод!".


*Определитесь, кто Вы:
робот инопланетянин человек

Внимание! Время в таблицах - всемирное. Для получения местного времени необходимо прибавить поправку, которая равна 1 ч.

Смотрите также архив погоды в соседних городах и на ближайших метеорологических станциях:

Погода в Рованиеми (Финляндия) (66 км)
Погода в Пудасъярви (Финляндия) (69 км)
Погода в Рованиеми Апукка (Финляндия) (70 км)
Погода в Рованиеми аэропорту (Финляндия) (70 км)
Погода в Кеми аэропорту (Финляндия) (84 км)
Погода на Аэродроме Кемиярви (Финляндия) (91 км)
Погода в Кеми Айос (Финляндия) (91 км)
Погода в Тайвалкоски (Финляндия) (95 км)
Погода в Мелтосярви (Финляндия) (99 км)
Погода в Торнио (Финляндия) (101 км)

Пояснения к столбцам:

Ветер - указаны скорость ветра в м/с - средняя за 10 мин, порывы в срок и между сроками (в фигурных скобках) и направление, откуда дует ветер: С - северный, СВ - северо-восточный, В - восточный, ЮВ - юго-восточный, Ю - южный, ЮЗ - юго-западный, З - западный, СЗ - северо-западный.
Видимость - горизонтальная дальность видимости в метрах или километрах. При видимости от 1 до 10 км при отсутствии осадков обычно наблюдается дымка, при ухудшении видимости до 1 км и менее - туман. В сухую погоду видимость может ухудшаться дымом, пылью или мглою.
Явления - указаны атмосферные явления, наблюдавшиеся в срок или в последний час перед сроком; фигурными скобками обозначены явления, наблюдавшиеся между сроками (за 1-3 часа до срока); квадратными скобками обозначены град или гололедные отложения с указанием их диаметра в мм.
Облачность - указаны через наклонную черту общая и нижняя облачность в баллах и высота нижней границы облаков в метрах; квадратными скобками обозначены формы облаков: Ci - перистые, Cs - перисто-слоистые, Cc - перисто-кучевые, Ac - высококучевые, As - высокослоистые, Sc - слоисто-кучевые, Ns - слоисто-дождевые, Cu - кучевые, Cb - кучево-дождевые. Подробнее классификацию облаков см. в Атласе облаков (PDF).
T - Температура воздуха - температура, измеренная на высоте 2 м над землей.
Td - Температура точки росы - температура, при понижении до которой содержащийся в воздухе водяной пар достигнет насыщения.
f - Относительная влажность воздуха - влажноcть воздуха, измеренная на высоте 2 м над землей.
Te - Эффективная температура - температура, которую ощущает одетый по сезону человек в тени. Характеристика душности погоды. При расчете учитывается влияние влажности воздуха и скорости ветра на теплоощущения человека.
Tes - Эффективная температура на солнце - температура, которую ощущает человек, с поправкой на солнечный нагрев. Характеристика знойности погоды. Зависит от высоты солнца над горизонтом, облачности и скорости ветра. Ночью, в пасмурную погоду, а также при ветре 12 м/с и более поправка равна нулю.
P - Атмосферное давление - приведенное к уровню моря атмосферное давление.
Po - Атмосферное давление - измеренное на уровне метеостанции атмосферное давление.
Tmin - Минимальная температура - минимум температуры воздуха на высоте 2 м над землей.
Tmax - Максимальная температура - максимум температуры воздуха на высоте 2 м над землей.
R - Количество осадков - Количество выпавших осадков за период времени, мм. При наведении курсора мыши на число - период времени, за который выпало указанное количество осадков.
R24 - Количество осадков - Количество выпавших осадков за 24 часа, мм.
S - Снежный покров - Высота снежного покрова, см. При наведении курсора мыши на число - состояние снежного покрова и степень покрытия местности в баллах.